Liberal, KS

2:58 AM CDT on September 26, 2017 (GMT -0500)
Liberal Municipal

Weather History for KLBL - May, 2014

Change the Weather History Date:

Friday, May 30, 2014

  Actual Average Record
Temperature  
Mean Temperature 76 °F -  
Max Temperature 89 °F 83 °F 101 °F (1958)
Min Temperature 62 °F 55 °F 42 °F (1964)
Cooling Degree Days 10    
Growing Degree Days 26 (Base 50)    
Moisture  
Dew Point 54 °F    
Average Humidity 46    
Maximum Humidity 72    
Minimum Humidity 27    
Precipitation  
Precipitation 0.00 in - - ()
Sea Level Pressure  
Sea Level Pressure 30.01 in    
Wind  
Wind Speed 10 mph (SE)    
Max Wind Speed 18 mph    
Max Gust Speed 23 mph    
Visibility 10 miles    
Events      
Averages and records for this station are not official NWS values.
T = Trace of Precipitation, MM = Missing Value Source: NWS Daily Summary

Daily Weather History Graph

Daily Weather History Graph

Search for Another Location

Airport or City:

Trip Planner

Search our weather history database for the weather conditions in past years. The results will help you decide how hot, cold, wet, or windy it might be!

Date:

Astronomy

May. 30, 2014 Rise Set
Actual Time 6:26 AM CDT 8:56 PM CDT
Civil Twilight 5:56 AM CDT 9:26 PM CDT
Nautical Twilight 5:18 AM CDT 10:04 PM CDT
Astronomical Twilight 4:37 AM CDT 10:45 PM CDT
Moon 8:10 AM CDT (5/30) 10:36 PM CDT (5/30)
Length of Visible Light 15h 30m
Length of Day
14h 30m
Waxing Crescent, 4% of the Moon is Illuminated
May 30
Waxing Crescent
Jun 5
First Quarter
Jun 12
Full
Jun 19
Last Quarter
Jun 27
New

Hourly Weather History & Observations

Time (CDT) Temp. Heat Index Dew Point Humidity Pressure Visibility Wind Dir Wind Speed Gust Speed Precip Events Conditions
12:15 AM 73.4 °F - 53.6 °F 50% 30.02 in 10.0 mi SSE 12.7 mph - N/A   Clear
12:35 AM 73.4 °F - 53.6 °F 50% 30.02 in 10.0 mi SSE 12.7 mph - N/A   Clear
12:55 AM 71.6 °F - 53.6 °F 53% 30.02 in 10.0 mi SSE 10.4 mph - N/A   Clear
1:15 AM 71.6 °F - 53.6 °F 53% 30.02 in 10.0 mi SE 10.4 mph - N/A   Clear
1:35 AM 69.8 °F - 53.6 °F 56% 30.02 in 10.0 mi SE 10.4 mph - N/A   Clear
1:55 AM 69.8 °F - 53.6 °F 56% 30.02 in 10.0 mi SE 9.2 mph - N/A   Clear
2:15 AM 69.8 °F - 53.6 °F 56% 30.02 in 10.0 mi SSE 8.1 mph - N/A   Clear
2:35 AM 68.0 °F - 53.6 °F 60% 30.02 in 10.0 mi South 8.1 mph - N/A   Clear
2:55 AM 66.2 °F - 51.8 °F 60% 30.02 in 10.0 mi South 8.1 mph - N/A   Clear
3:15 AM 66.2 °F - 53.6 °F 64% 30.02 in 10.0 mi SSE 5.8 mph - N/A   Clear
3:35 AM 66.2 °F - 51.8 °F 60% 30.01 in 10.0 mi SSE 6.9 mph - N/A   Clear
4:15 AM 64.4 °F - 53.6 °F 68% 30.01 in 10.0 mi SSE 6.9 mph - N/A   Clear
4:35 AM 64.4 °F - 51.8 °F 64% 30.01 in 10.0 mi SSW 5.8 mph - N/A   Clear
4:55 AM 62.6 °F - 51.8 °F 68% 30.02 in 10.0 mi Calm Calm - N/A   Clear
5:15 AM 64.4 °F - 53.6 °F 68% 30.02 in 10.0 mi ESE 6.9 mph - N/A   Clear
5:35 AM 64.4 °F - 53.6 °F 68% 30.02 in 10.0 mi ESE 4.6 mph - N/A   Clear
5:55 AM 62.6 °F - 53.6 °F 72% 30.01 in 10.0 mi SE 5.8 mph - N/A   Clear
6:15 AM 62.6 °F - 53.6 °F 72% 30.02 in 10.0 mi East 5.8 mph - N/A   Clear
6:35 AM 64.4 °F - 53.6 °F 68% 30.02 in 10.0 mi East 8.1 mph - N/A   Clear
6:55 AM 64.4 °F - 53.6 °F 68% 30.02 in 10.0 mi East 6.9 mph - N/A   Clear
7:15 AM 64.4 °F - 53.6 °F 68% 30.03 in 10.0 mi ESE 6.9 mph - N/A   Clear
7:35 AM 66.2 °F - 53.6 °F 64% 30.04 in 10.0 mi ESE 8.1 mph - N/A   Clear
7:55 AM 66.2 °F - 55.4 °F 68% 30.05 in 10.0 mi East 6.9 mph - N/A   Clear
8:15 AM 69.8 °F - 55.4 °F 60% 30.04 in 10.0 mi SE 10.4 mph - N/A   Clear
8:35 AM 71.6 °F - 57.2 °F 60% 30.04 in 10.0 mi SE 10.4 mph - N/A   Clear
8:55 AM 73.4 °F - 57.2 °F 57% 30.04 in 10.0 mi SE 11.5 mph - N/A   Clear
9:15 AM 75.2 °F - 57.2 °F 53% 30.04 in 10.0 mi SSE 11.5 mph - N/A   Clear
9:35 AM 77.0 °F - 57.2 °F 50% 30.04 in 10.0 mi SSE 10.4 mph - N/A   Clear
9:55 AM 78.8 °F - 57.2 °F 47% 30.05 in 10.0 mi SSE 10.4 mph - N/A   Clear
10:15 AM 80.6 °F 80.8 °F 57.2 °F 45% 30.04 in 10.0 mi South 10.4 mph - N/A   Clear
10:35 AM 82.4 °F 81.7 °F 55.4 °F 39% 30.04 in 10.0 mi SSE 5.8 mph - N/A   Clear
10:55 AM 82.4 °F 81.7 °F 55.4 °F 39% 30.04 in 10.0 mi SSE 5.8 mph - N/A   Clear
11:15 AM 84.2 °F 83.0 °F 55.4 °F 37% 30.04 in 10.0 mi SE 4.6 mph - N/A   Clear
11:35 AM 84.2 °F 83.0 °F 55.4 °F 37% 30.03 in 10.0 mi SE 6.9 mph - N/A   Clear
11:55 AM 86.0 °F 84.5 °F 55.4 °F 35% 30.03 in 10.0 mi SSE 9.2 mph - N/A   Clear
12:15 PM 86.0 °F 84.5 °F 55.4 °F 35% 30.02 in 10.0 mi South 5.8 mph - N/A   Partly Cloudy
12:35 PM 87.8 °F 85.7 °F 53.6 °F 31% 30.02 in 10.0 mi ESE 3.5 mph - N/A   Partly Cloudy
1:15 PM 87.8 °F - 51.8 °F 29% 30.02 in 10.0 mi SE 11.5 mph - N/A   Partly Cloudy
1:35 PM 87.8 °F - 51.8 °F 29% 30.01 in 10.0 mi ESE 10.4 mph - N/A   Partly Cloudy
1:55 PM 87.8 °F - 51.8 °F 29% 30.01 in 10.0 mi ESE 11.5 mph - N/A   Scattered Clouds
2:15 PM 87.8 °F - 51.8 °F 29% 30.01 in 10.0 mi SE 10.4 mph 19.6 mph N/A   Scattered Clouds
2:35 PM 87.8 °F - 51.8 °F 29% 30.00 in 10.0 mi ESE 12.7 mph - N/A   Partly Cloudy
2:55 PM 89.6 °F - 51.8 °F 27% 30.00 in 10.0 mi ESE 13.8 mph - N/A   Clear
3:15 PM 89.6 °F 87.3 °F 53.6 °F 29% 29.99 in 10.0 mi East 10.4 mph 19.6 mph N/A   Clear
3:35 PM 87.8 °F - 51.8 °F 29% 29.99 in 10.0 mi SE 10.4 mph - N/A   Partly Cloudy
4:15 PM 89.6 °F 87.3 °F 53.6 °F 29% 29.98 in 10.0 mi SE 10.4 mph - N/A   Partly Cloudy
4:35 PM 89.6 °F 87.3 °F 53.6 °F 29% 29.97 in 10.0 mi SSE 11.5 mph 21.9 mph N/A   Clear
5:15 PM 87.8 °F - 51.8 °F 29% 29.96 in 10.0 mi SSE 11.5 mph 20.7 mph N/A   Partly Cloudy
5:35 PM 87.8 °F 85.7 °F 53.6 °F 31% 29.95 in 10.0 mi East 12.7 mph - N/A   Partly Cloudy
5:55 PM 87.8 °F - 51.8 °F 29% 29.96 in 10.0 mi ESE 12.7 mph - N/A   Scattered Clouds
6:15 PM 87.8 °F 85.7 °F 53.6 °F 31% 29.95 in 10.0 mi ESE 11.5 mph - N/A   Partly Cloudy
6:35 PM 87.8 °F 85.7 °F 53.6 °F 31% 29.95 in 10.0 mi SE 16.1 mph 21.9 mph N/A   Clear
6:55 PM 87.8 °F 85.7 °F 53.6 °F 31% 29.95 in 10.0 mi ESE 15.0 mph 21.9 mph N/A   Clear
7:15 PM 87.8 °F 85.7 °F 53.6 °F 31% 29.95 in 10.0 mi ESE 16.1 mph - N/A   Clear
7:35 PM 86.0 °F 84.2 °F 53.6 °F 33% 29.95 in 10.0 mi SE 16.1 mph - N/A   Clear
7:55 PM 84.2 °F - 51.8 °F 33% 29.95 in 10.0 mi ESE 18.4 mph - N/A   Clear
8:15 PM 82.4 °F - 51.8 °F 35% 29.96 in 10.0 mi ESE 15.0 mph - N/A   Clear
8:35 PM 82.4 °F - 51.8 °F 35% 29.97 in 10.0 mi ESE 13.8 mph 23.0 mph N/A   Clear
8:55 PM 80.6 °F - 51.8 °F 37% 29.98 in 10.0 mi ESE 15.0 mph - N/A   Clear
9:15 PM 80.6 °F - 51.8 °F 37% 29.99 in 10.0 mi ESE 13.8 mph - N/A   Clear
9:35 PM 78.8 °F - 51.8 °F 39% 30.00 in 10.0 mi ESE 12.7 mph 19.6 mph N/A   Clear
9:55 PM 78.8 °F - 51.8 °F 39% 30.00 in 10.0 mi ESE 11.5 mph 18.4 mph N/A   Clear
10:15 PM 77.0 °F - 51.8 °F 41% 30.01 in 10.0 mi ESE 13.8 mph - N/A   Clear
10:35 PM 75.2 °F - 53.6 °F 47% 30.02 in 10.0 mi ESE 12.7 mph - N/A   Clear
10:55 PM 75.2 °F - 53.6 °F 47% 30.03 in 10.0 mi SE 11.5 mph - N/A   Clear
11:15 PM 75.2 °F - 53.6 °F 47% 30.04 in 10.0 mi ESE 12.7 mph - N/A   Clear
11:35 PM 75.2 °F - 53.6 °F 47% 30.07 in 10.0 mi West 8.1 mph - N/A   Partly Cloudy
11:55 PM 75.2 °F - 55.4 °F 50% 30.08 in 10.0 mi WSW 6.9 mph 17.3 mph N/A   Mostly Cloudy